Location: Dry Drayton
(52.2333°N, 0.0333°E)
Time: 15:28:10
(UTC+00:00)

Daily predictions for brighter satellites

Satellite Brightness Start Highest point End
(mag) Time Altitude Azimuth Time Altitude Azimuth Time Altitude Azimuth
Cosmos 1624 Rocket 4.0 20:07:37 10° SSW 20:12:47 79° ESE 20:17:59 10° NNE
Gbstr 26 Del rocket 3.4 20:08:27 10° W 20:13:51 71° SSW 20:18:15 10° ESE
Terra 1.9 20:10:00 10° SSE 20:14:42 85° WSW 20:19:26 10° NNW
Cosmos 2360 Rocket 4.4 20:11:23 10° NNW 20:15:02 17° NNE 20:18:40 10° ENE
Sich 1 Rocket 3.9 20:12:55 10° SSE 20:17:03 44° E 20:21:14 10° NNE
Cosmos 1900 4.4 20:12:07 10° SW 20:17:05 89° SSE 20:22:02 10° NE
SJ 16-02 3.7 20:16:04 10° NW 20:19:12 20° W 20:22:19 10° SW
USA 229 DEB 4.4 20:17:34 10° NW 20:24:52 62° SW 20:32:57 10° SSE
USA 229 4.4 20:17:36 10° NW 20:24:56 63° SW 20:33:01 10° SSE
MetOp-B 4.4 20:19:58 10° S 20:25:20 74° WSW 20:30:43 10° NNW
Cosmos 1743 2.9 20:22:52 10° N 20:25:41 34° ENE 20:28:28 10° SE
CZ-2C R/B 4.3 20:24:30 10° E 20:25:48 13° ENE 20:27:07 10° NNE
SKYMED 3 4.3 20:25:49 10° NNE 20:29:44 70° ESE 20:33:40 10° S
Cosmos 44 Rocket 4.1 20:26:51 10° S 20:31:20 33° ESE 20:35:57 10° NE
ISS -2.0 20:30:03 10° S 20:31:53 14° SE 20:33:44 10° ESE
Cosmos 2219 Rocket 4.4 20:29:06 10° NNW 20:32:30 16° NNE 20:35:53 10° ENE
Cosmos 1459 Rocket 4.0 20:26:50 10° S 20:33:01 69° E 20:39:09 10° NNE
SL-24 R/B 4.5 20:31:08 10° N 20:35:21 68° WNW 20:39:41 10° SSW
Cosmos 2100 Rocket 4.0 20:30:21 10° S 20:36:34 79° E 20:42:54 10° NNE
Ariane Rocket 3.8 20:32:28 10° SE 20:37:06 38° ENE 20:41:46 10° N
ATLAS 2AS CENTAUR R/B 2.9 20:32:48 10° SW 20:39:46 82° NW 20:46:38 10° NE
ADEOS 4.0 20:34:44 10° S 20:39:54 63° WSW 20:45:06 10° NNW
Cosmos 2369 4.2 20:35:31 10° NNW 20:41:06 51° NE 20:46:24 11° SE
BREEZE-M DEB (TANK) 4.0 20:38:48 10° W 20:41:30 34° SSW 20:47:10 11° SE
SL-4 R/B 3.4 20:38:26 10° W 20:41:33 24° SW 20:44:42 10° SSE
Spot 2 Rocket 3.5 20:37:56 10° SSE 20:42:57 87° WSW 20:48:01 10° NNW
Cosmos 2322 Rocket 4.0 20:38:43 10° NNW 20:43:03 22° NE 20:47:24 10° E
Cosmos 2151 Rocket 4.1 20:40:36 10° SSW 20:44:55 62° WNW 20:49:16 10° N
MOS 1-B 4.4 20:40:48 10° SSE 20:46:36 88° WSW 20:52:28 10° NNW
Cosmos 2082 Rocket 3.1 20:42:18 10° SSE 20:47:07 29° ESE 20:51:55 10° NE
Okean 2 Rocket 3.3 20:42:49 10° SSW 20:47:17 77° W 20:51:48 10° N
USA 305 2.7 20:43:25 10° WNW 20:47:32 82° NNE 20:51:08 11° ESE
Cosmos 2151 4.5 20:46:46 10° NNE 20:50:03 22° ENE 20:52:53 12° ESE
Cosmos 1626 Rocket 4.4 20:52:57 10° N 20:56:57 34° ENE 21:00:04 15° SE
Cosmos 1607 4.5 20:52:19 10° S 20:57:50 36° ESE 21:03:27 10° NE
Cosmos 2233 Rocket 4.2 20:52:11 10° SSE 20:58:10 53° E 21:04:09 10° NNE
Cosmos 2228 3.3 20:55:35 11° SSE 20:59:21 44° E 21:03:17 10° NNE
USA 186 2.0 20:58:27 11° S 21:00:55 51° W 21:03:35 10° NNW
Timation 1 Rocket 4.3 20:55:15 10° SSW 21:01:14 75° ESE 21:07:15 10° NE
Helios 1A Rocket 4.3 20:58:27 10° N 21:01:18 31° WNW 21:04:08 10° SW
Okean O Rocket 2.0 20:57:59 10° S 21:02:14 60° WSW 21:06:30 10° NNW
Tsikada Rocket 4.0 20:57:01 10° N 21:03:14 72° ENE 21:08:51 13° SSE
Cosmos 1697 Rocket 4.0 21:00:39 10° NW 21:05:43 35° WSW 21:10:44 10° S
CZ-4C R/B 1.7 21:04:12 10° SSW 21:08:23 61° SE 21:13:48 10° NE
Cosmos 1725 Rocket 4.0 21:02:56 10° S 21:09:13 86° E 21:15:30 10° N
Cosmos 1452 Rocket 3.4 21:04:24 10° SSW 21:09:36 71° ESE 21:14:50 10° NNE
SL-16 R/B 3.1 21:04:55 10° NNW 21:10:17 41° NE 21:14:58 13° ESE
COSMOS 2406 4.5 21:07:29 15° SE 21:10:22 22° E 21:14:40 10° NE
Cosmos 1867 4.4 21:07:29 10° WSW 21:12:51 56° NW 21:18:15 10° NE
ATLAS 3B R/B 3.7 21:06:53 10° NW 21:14:11 46° WSW 21:20:47 11° S
Okean-O 3.4 21:10:58 10° S 21:15:11 47° W 21:19:26 10° NNW
Cosmos 1331 Rocket 4.2 21:13:36 10° SSW 21:18:50 75° WNW 21:24:05 10° NNE
Cosmos 1892 Rocket 4.1 21:15:04 10° NNW 21:19:19 55° W 21:23:27 10° S
CZ-4B R/B 3.3 21:19:07 16° SSE 21:22:54 89° NW 21:27:43 10° NNW
Cosmos 2333 Rocket 3.0 21:17:45 10° NNW 21:23:13 44° NE 21:27:39 15° ESE
USA 245 4.5 21:18:48 12° S 21:24:14 74° WSW 21:30:05 10° NNW
Cosmos 1455 Rocket 3.4 21:21:18 10° SSW 21:25:41 68° WNW 21:30:05 10° N
Cosmos 1302 Rocket 4.0 21:22:13 10° S 21:27:19 63° ESE 21:32:27 10° NNE
Cosmos 2016 Rocket 4.1 21:22:02 10° SSW 21:28:19 78° W 21:34:34 10° N
SL-08 R/B 4.4 21:24:14 10° N 21:28:54 46° WNW 21:33:28 10° SW
Cosmos 1980 Rocket 3.0 21:28:35 10° NW 21:34:00 45° WSW 21:38:33 14° S
CZ-4B R/B 3.1 21:33:11 18° S 21:35:26 50° W 21:38:46 10° NNW
Cosmos 2061 Rocket 4.0 21:29:52 10° S 21:36:05 81° E 21:42:23 10° NNE
Cosmos 1782 2.9 21:32:59 10° SSW 21:36:28 60° WNW 21:39:58 10° N
Cosmos 1544 Rocket 3.8 21:35:33 22° SSE 21:38:03 49° E 21:42:15 10° NNE
Cosmos 724 4.2 21:32:21 10° SSW 21:38:20 73° SE 21:44:15 10° NE
SPOT 3 Rocket 3.9 21:34:29 14° S 21:38:48 60° WSW 21:43:54 10° NNW
NOSS 3-3 (A) 4.1 21:34:27 10° S 21:39:19 42° ESE 21:45:04 10° NE
Cosmos 1933 3.7 21:44:20 28° SE 21:45:44 41° E 21:49:20 10° NNE
Cosmos 2084 Rocket 3.6 21:44:07 10° NW 21:48:16 61° SW 21:50:19 28° SSE
Cosmos 1758 Rocket 3.5 21:46:45 10° NNW 21:51:09 83° W 21:53:42 25° S
Terra 4.4 21:50:44 10° WSW 21:52:57 13° W 21:55:11 10° WNW
Helios 1B rocket 3.4 21:51:51 22° ESE 21:53:09 28° ENE 21:56:13 10° N
CZ-2C R/B 2.8 21:55:17 28° SSW 21:56:16 41° W 21:58:57 10° NNW
Cosmos 1464 Rocket 4.4 21:53:23 23° SSE 21:56:48 44° E 22:02:36 10° NNE
Gbstr 26 Del rocket 4.2 21:55:34 10° W 21:59:35 26° SW 22:00:52 23° S
Cosmos 2360 Rocket 2.8 21:54:57 10° NNW 22:00:27 48° NE 22:04:14 20° ESE
NOSS 3-3 (C) 3.8 22:02:52 15° SSW 22:07:08 53° SE 22:13:15 10° NE
Cosmos 1825 Rocket 4.0 22:03:16 10° N 22:07:27 46° ENE 22:09:11 30° SE
ISS -3.6 22:04:53 10° SW 22:08:07 48° SSE 22:08:14 47° SSE
ALOS 2 4.3 22:06:32 16° E 22:08:46 24° ENE 22:12:16 10° N
Geosat 4.0 22:03:53 10° NE 22:08:53 64° ESE 22:12:23 19° SSW
ARIANE 5 R/B 4.0 22:07:11 19° ESE 22:09:22 28° ENE 22:13:09 10° N
Cosmos 44 Rocket 4.1 22:07:31 10° WSW 22:12:34 58° NW 22:17:43 10° NE
USA 305 3.1 22:09:01 10° WNW 22:12:44 36° SW 22:13:09 35° SSW
BREEZE-M R/B 4.3 22:05:39 10° W 22:15:12 81° S 22:20:51 10° E
Ariane Rocket 4.1 22:12:25 16° SSW 22:15:59 38° W 22:20:42 10° NNW
Cosmos 1602 Rocket 3.5 22:12:30 10° NNW 22:16:49 79° W 22:18:42 33° S
Cosmos 2219 Rocket 3.0 22:12:35 10° NNW 22:17:59 43° NE 22:21:48 18° ESE
DEBRIS 4.0 22:14:44 10° WSW 22:18:30 71° S 22:31:58 10° E
NOSS 3-4 (A) 3.8 22:14:02 10° NW 22:20:32 78° NE 22:26:01 20° SE
NOSS 3-4 (C) 3.8 22:14:38 10° NW 22:21:09 77° NE 22:26:40 20° SE
Cosmos 1437 Rocket 2.5 22:21:47 38° SSW 22:23:02 81° WNW 22:26:38 10° N
Cosmos 1461 3.9 22:26:32 24° E 22:26:32 24° E 22:28:48 10° ENE
Cosmos 2151 3.7 22:23:06 10° NNW 22:27:03 44° W 22:28:56 26° SSW
Cosmos 1428 Rocket 4.5 22:21:42 10° N 22:28:00 78° ENE 22:31:20 29° SSE
Cosmos 2322 Rocket 2.3 22:22:23 10° NNW 22:28:04 74° ENE 22:31:03 29° SE
Cosmos 2034 Rocket 4.3 22:27:37 28° SSE 22:30:47 53° E 22:36:56 10° NNE
Cosmos 2082 Rocket 2.7 22:25:09 10° SW 22:30:49 63° NW 22:36:31 10° NNE
ATLAS 2AS CENTAUR R/B 4.2 22:25:12 10° W 22:31:32 37° NNW 22:37:48 10° NE
GRACE-FO 1 4.3 22:30:57 52° S 22:31:44 89° W 22:35:15 10° N
GRACE-FO 2 4.3 22:31:25 52° S 22:32:12 88° W 22:35:43 10° N
Cosmos 220 Rocket 4.1 22:32:36 43° SE 22:33:19 49° ESE 22:37:16 10° NE
Meteor 1-5 Rocket 4.3 22:31:30 10° NNW 22:37:08 79° W 22:40:03 31° S
Cosmos 1536 3.9 22:34:04 10° N 22:37:16 27° ENE 22:38:06 25° E
Cosmos 1707 4.1 22:38:21 17° ENE 22:38:21 17° ENE 22:39:41 10° NE
USA 234 3.6 22:33:12 10° ENE 22:39:22 42° SE 22:42:49 24° S
COSMOS 2428 4.3 22:36:18 10° NNW 22:41:15 29° NE 22:46:08 10° E
Cosmos 1607 4.3 22:38:39 10° WSW 22:44:47 65° NW 22:51:05 10° NE
Okean 1-7 Rocket 3.7 22:41:07 10° NNW 22:45:32 67° W 22:47:08 38° SSW
IKONOS-2 4.4 22:42:19 10° NNE 22:46:28 79° WNW 22:48:04 36° SSW
Cosmos 1503 Rocket 3.9 22:41:37 10° NNW 22:46:53 81° ENE 22:49:02 36° SSE
Cosmos 1763 Rocket 4.2 22:45:39 31° SE 22:46:56 36° ESE 22:51:44 10° NE
Cosmos 1777 Rocket 3.9 22:41:53 10° NNW 22:47:09 82° WSW 22:49:16 37° SSE
Cosmos 2278 3.8 22:41:29 10° NW 22:47:10 66° WSW 22:49:38 34° S
Helios 1A 2.8 22:43:30 10° NNE 22:47:27 81° WNW 22:48:44 41° SSW
Cosmos-2242 3.7 22:47:28 34° ESE 22:48:07 36° E 22:51:56 10° NNE
Cosmos 909 Rocket 4.2 22:43:05 10° SW 22:49:21 74° NW 22:56:00 10° NE
Cosmos 990 Rocket 4.2 22:45:04 10° NNW 22:50:13 64° ENE 22:52:30 32° SE
Cosmos 1805 3.6 22:47:26 10° NNW 22:50:32 40° W 22:51:00 37° WSW
COSMOS 2406 3.3 22:49:26 17° SW 22:54:02 79° WNW 22:59:49 10° NNE
Cosmos 1606 Rocket 3.5 22:52:44 40° SSW 22:54:16 84° W 22:58:38 10° N
SL-16 R/B 2.7 22:49:04 10° NW 22:54:28 47° WSW 22:56:47 31° SSW
USA 290 3.6 22:56:48 27° ENE 22:56:48 27° ENE 22:58:50 10° NE
CZ-4C R/B 3.5 22:52:27 10° W 22:56:54 39° NNW 23:02:38 10° NE
Cosmos 1354 Rocket 4.1 22:51:49 10° NNW 22:57:06 71° ENE 22:59:19 35° SE
Cosmos 1486 Rocket 4.2 22:53:43 10° NNW 22:58:52 60° WSW 23:00:50 36° S
Nadezhda 4 Rocket 4.2 22:53:41 10° NNW 22:59:42 60° W 23:02:51 28° SSW
Cosmos 1634 Rocket 4.3 22:57:50 32° SSE 23:00:24 50° E 23:06:21 10° NNE
CSL-04 DEB 4.3 23:00:26 51° SW 23:00:56 57° WSW 23:04:29 10° NNW
Cosmos 1766 3.0 22:58:02 10° N 23:01:13 56° ENE 23:01:17 56° E
Cosmos 1470 3.9 23:01:02 10° NNE 23:03:49 24° ENE 23:04:12 24° E
Cosmos 2098 Rocket 3.8 23:02:09 25° SW 23:04:55 54° WNW 23:09:24 10° N
SeaSat 1 3.5 23:03:53 17° ESE 23:07:09 40° NE 23:11:43 10° NNW
Cosmos 1726 Rocket 3.3 23:06:20 50° SSW 23:07:22 83° WNW 23:11:26 10° N
Cosmos 2333 Rocket 2.9 23:02:11 10° NW 23:07:32 43° WSW 23:09:39 31° SSW
Cosmos 1076 Rocket 3.7 23:06:19 10° NNW 23:10:32 59° W 23:11:38 43° SSW
Cosmos 2221 4.1 23:09:57 20° E 23:10:33 21° E 23:13:43 10° NE
Meteor 2-2 Rocket 4.4 23:10:21 37° SSE 23:12:26 60° E 23:18:05 10° NNE
Cosmos 1842 4.3 23:13:51 25° ENE 23:13:51 25° ENE 23:16:07 10° NNE
BREEZE-M DEB (TANK) 3.6 23:08:20 10° W 23:16:50 60° S 23:21:41 10° ESE
CZ-2C R/B 3.5 23:16:22 24° ESE 23:19:04 42° ENE 23:23:59 10° N
Cosmos 1833 4.4 23:17:41 38° SSE 23:19:27 54° ESE 23:24:57 10° NE
Cosmos 2026 Rocket 4.2 23:18:01 10° NNW 23:24:21 68° W 23:27:17 33° SSW
Okean 1 3.8 23:23:58 38° WSW 23:24:42 45° WNW 23:28:10 10° N
Spot 4 3.9 23:23:21 44° S 23:24:47 69° WSW 23:29:34 10° NNW
KORONAS-FOTON 3.8 23:25:14 51° E 23:25:14 51° E 23:28:24 10° NNE
Helios 1B rocket 3.4 23:25:48 26° WSW 23:26:08 27° W 23:29:10 10° NW
SAR-Lupe-2 3.2 23:26:37 87° SW 23:26:39 87° WSW 23:30:00 10° NNW
Cosmos 1975 3.5 23:24:14 10° N 23:27:41 37° ENE 23:28:17 35° E
Aureole 1 Rocket 3.7 23:24:01 10° NNW 23:29:13 81° ENE 23:32:03 34° SSE
Cosmos 2322 4.2 23:26:11 10° NNW 23:31:49 56° NE 23:35:17 23° ESE
Cosmos 44 3.6 23:29:50 10° NW 23:35:17 74° NE 23:38:07 28° SE
Cosmos 2297 Rocket 4.2 23:33:58 12° ESE 23:35:25 13° E 23:37:45 10° ENE
Cosmos 1271 Rocket 3.2 23:38:07 39° E 23:38:07 39° E 23:41:09 10° NNE
Cosmos 372 Rocket 4.0 23:36:28 10° NNW 23:41:38 76° ENE 23:43:34 39° SE
RESURS DK-1 3.4 23:38:40 10° NNW 23:42:27 40° NE 23:44:13 25° ESE
Cosmos 1937 Rocket 4.2 23:37:50 10° NNW 23:42:51 47° ENE 23:45:41 24° ESE
Cosmos 2360 Rocket 3.0 23:39:10 10° NW 23:44:22 38° WSW 23:45:58 32° SW
ALOS 2 3.0 23:43:55 43° SW 23:44:49 52° W 23:49:09 10° NNW
ARIANE 5 R/B 3.3 23:44:33 37° SW 23:45:29 43° W 23:49:45 10° NNW
Meteor 1-11 Rocket 4.2 23:41:10 10° N 23:46:48 53° ENE 23:49:31 29° SE
Meteor 1-26 Rocket 4.3 23:45:25 34° SSW 23:47:48 68° WNW 23:53:26 10° N
GP-B 3.5 23:43:57 10° N 23:48:13 50° E 23:49:14 41° SE
Cosmos 2058 Rocket 3.2 23:48:52 46° SW 23:50:00 65° WNW 23:54:21 10° N
Cosmos 468 Rocket 4.1 23:51:08 43° SSE 23:52:39 62° ESE 23:57:51 10° NNE
